Location: Fort Worth, Tx
(32.7431°N, 97.3695°W)
Time: 11:19:00
(UTC-04:00)

Courier 1B - Pass Details

Date: 01 March 2024
Orbit: 962 x 1208 km, 28.3° (Epoch: 24 April)

Event Time Altitude Azimuth Distance (km) Brightness Sun altitude
Exits shadow 05:48:43 14° 183° (S) 2,469 9.5 -27.6°
Drops below altitude 10° 05:50:14 10° 171° (S) 2,744 9.8 -27.3°
Sets 05:54:02 0° 151° (SSE) 3,733 10.8 -26.5°
